Miscellaneous Local Product
Issued by NWS North Platte, NE

Home | Current Version | Previous Version | Text Only | Print | Product List | Glossary On
Versions: 1 2 3 4 5 6 7 8 9 10 11 12 13 14 15 16 17 18 19 20 21 22 23 24 25 26 27 28 29 30 31 32 33 34 35 36 37 38 39 40 41 42 43 44 45 46 47 48 49 50
000
AXUS43 KLBF 210710
MISLBF


WESTERN AND NORTH CENTRAL NEBRASKA HOURLY WEATHER ROUNDUP
NATIONAL WEATHER SERVICE NORTH PLATTE NE
200 AM CDT TUE OCT 21 2014

***STATIONS NOT REPORTING VARIABLES SUCH AS SKY/WEATHER OR
PRESSURE ARE PROVIDED BY THE NEBRASKA DEPARTMENT OF
ROADS...RAWS...AND APRS NETWORKS...AND ARE NOT UNDER
NATIONAL WEATHER SERVICE QUALITY CONTROL***

...OBSERVATIONS IN AND NEAR THE EASTERN PANHANDLE OF NEBRASKA...

CITY           SKY/WX    TMP DP  RH WIND       PRES   REMARKS
PINE RIDGE     CLEAR     60  40  47 S16G24    29.93F
CHADRON        CLEAR     63  40  42 SW13      29.92R
ALLIANCE       CLEAR     47  40  76 S10       30.00S
SIDNEY         CLEAR     52  41  66 S10       30.05F
WHITECLAY        N/A     58  38  47 S15         N/A
RUSHVILLE        N/A     51  34  52 SW8         N/A
CRESCENT LAKE    N/A     53  40  61 S6          N/A
LISCO            N/A     63  38  39 S5          N/A
BIG SPRINGS      N/A     56  42  58 S9          N/A
LEWELLEN         N/A     62  36  38 S13         N/A
$$

...OBSERVATIONS IN NORTH CENTRAL NEBRASKA...

CITY           SKY/WX    TMP DP  RH WIND       PRES   REMARKS
VALENTINE      CLEAR     55  39  54 S12       29.97S
THEDFORD       CLEAR     55  41  58 S7        30.03S
AINSWORTH      CLEAR     55  40  57 S12       30.00R
O`NEILL        CLEAR     50  42  73 S7        30.04R
ORD            CLEAR     41  36  82 SE3       30.05R
BROKEN BOW     CLEAR     44  38  79 CALM      30.05R
BROWNLEE         N/A     54  39  57 S10         N/A
SPRINGVIEW       N/A     54  42  65 E5          N/A
BREWSTER         N/A     53  41  65 S3          N/A
ROSE             N/A     52  44  73 E6          N/A
NEWPORT          N/A     43  39  86 SE3         N/A
SARGENT          N/A     47  41  79 CALM        N/A
COMSTOCK         N/A     53  43  69 S6          N/A
CHAMBERS         N/A     48  37  67 S3          N/A
$$

...OBSERVATIONS IN SOUTHWEST NEBRASKA AND FAR NORTHEAST COLORADO...

CITY           SKY/WX    TMP DP  RH WIND       PRES   REMARKS
WRAY           FAIR      54  40  57 S6        30.08S
HOLYOKE        FAIR      46  37  71 S8        30.06F
IMPERIAL       CLEAR     51  37  58 S7        30.07S
OGALLALA       CLEAR     45  38  75 CALM      30.05S
NORTH PLATTE   CLEAR     47  38  71 SE3       30.05S
MCCOOK         CLEAR     50  40  68 SW10      30.07R
LEXINGTON      CLEAR     50  41  71 CALM      30.06S
PAXTON           N/A     53  41  63 CALM        N/A
SUTHERLAND       N/A     51  36  55 SW6         N/A
BRADY            N/A     52  40  64 CALM        N/A
GOTHENBURG       N/A     51  38  60 CALM        N/A
CALLAWAY         N/A     49  41  75 S9          N/A
$$

...SOME WEATHER OBSERVATIONS FROM AROUND THE REGION...

CITY           SKY/WX    TMP DP  RH WIND       PRES   REMARKS
DENVER         CLEAR     58  39  49 S21       30.05S
LARAMIE        CLEAR     38  31  76 S7        30.13F WCI  33
CHEYENNE       CLEAR     41  34  76 W5        30.07S
SCOTTSBLUFF    CLEAR     60  41  49 N5        29.99S
RAPID CITY     CLEAR     53  42  66 SE5       29.87S
PIERRE         CLEAR     53  38  56 E12       29.90F
WINNER         FAIR      62  41  46 S20       29.94F
SIOUX FALLS    CLEAR     41  36  82 CALM      30.06R
OMAHA          CLEAR     45  42  89 CALM      30.08R
GRAND ISLAND   CLEAR     49  39  68 S7        30.07R
KANSAS CITY    CLEAR     53  41  63 SE3       30.07F
WICHITA        CLEAR     55  47  74 CALM      30.07S
HAYS           CLEAR     48  39  71 CALM      30.08S
LIBERAL        CLEAR     57  52  82 E7        30.09F
GOODLAND       CLEAR     52  40  63 SW9       30.11S
$$



USA.gov is the U.S. government's official web portal to all federal, state and local government web resources and services.